Stündliche Wetter Ceglarze

Heute, 25 Januar, Montag

Zeit Temperatur Niederschläge Wind Luftdruck Luftfeuchtigkeit
00:00 -2°C° 0 mm 3 m/S 726 mmHg 85%
01:00 -4°C° 0 mm 3 m/S 726 mmHg 86%
02:00 -3°C° 0 mm 2 m/S 726 mmHg 87%
03:00 -3°C° 0 mm 2 m/S 726 mmHg 89%
04:00 -3°C° 0 mm 2 m/S 726 mmHg 90%
05:00 -3°C° 0 mm 2 m/S 726 mmHg 92%
06:00 -3°C° 0 mm 2 m/S 726 mmHg 94%
07:00 -2°C° 0 mm 2 m/S 727 mmHg 95%
08:00 -2°C° 0.1 mm 3 m/S 727 mmHg 94%
09:00 -2°C° 0.1 mm 3 m/S 727 mmHg 94%
10:00 -1°C° 0.1 mm 3 m/S 727 mmHg 93%
11:00 -1°C° 0.1 mm 3 m/S 727 mmHg 93%
12:00 -2°C° 0.1 mm 4 m/S 727 mmHg 93%
13:00 -2°C° 0 mm 4 m/S 728 mmHg 93%
14:00 -2°C° 0.1 mm 4 m/S 728 mmHg 93%
15:00 -2°C° 0.1 mm 4 m/S 729 mmHg 94%
16:00 -2°C° 0.1 mm 4 m/S 729 mmHg 94%
17:00 -2°C° 0.1 mm 4 m/S 729 mmHg 94%
18:00 -3°C° 0.1 mm 4 m/S 730 mmHg 93%
19:00 -3°C° 0.1 mm 4 m/S 730 mmHg 93%
20:00 -3°C° 0 mm 4 m/S 731 mmHg 94%
21:00 -4°C° 0 mm 3 m/S 731 mmHg 94%
22:00 -4°C° 0 mm 3 m/S 731 mmHg 94%
23:00 -4°C° 0 mm 3 m/S 731 mmHg 94%

Morgen, 26 Januar, Dienstag

Zeit Temperatur Niederschläge Wind Luftdruck Luftfeuchtigkeit
00:00 -4°C° 0 mm 4 m/S 732 mmHg 94%
01:00 -4°C° 0 mm 4 m/S 732 mmHg 93%
02:00 -4°C° 0.1 mm 4 m/S 732 mmHg 93%
03:00 -3°C° 0.1 mm 4 m/S 733 mmHg 93%
04:00 -4°C° 0.1 mm 5 m/S 733 mmHg 93%
05:00 -4°C° 0.1 mm 5 m/S 733 mmHg 93%
06:00 -4°C° 0.1 mm 5 m/S 733 mmHg 93%
07:00 -5°C° 0.1 mm 5 m/S 733 mmHg 93%
08:00 -4°C° 0 mm 5 m/S 734 mmHg 91%
09:00 -4°C° 0 mm 5 m/S 734 mmHg 90%
10:00 -4°C° 0 mm 5 m/S 734 mmHg 88%
11:00 -2°C° 0 mm 5 m/S 734 mmHg 88%
12:00 -2°C° 0 mm 5 m/S 735 mmHg 87%
13:00 -2°C° 0 mm 5 m/S 735 mmHg 87%
14:00 -2°C° 0 mm 5 m/S 735 mmHg 86%
15:00 -2°C° 0 mm 4 m/S 735 mmHg 85%
16:00 -2°C° 0 mm 3 m/S 735 mmHg 85%
17:00 -2°C° 0 mm 3 m/S 735 mmHg 86%
18:00 -2°C° 0 mm 3 m/S 735 mmHg 87%
19:00 -4°C° 0 mm 3 m/S 735 mmHg 88%
20:00 -4°C° 0 mm 3 m/S 736 mmHg 89%
21:00 -4°C° 0 mm 3 m/S 736 mmHg 89%
22:00 -4°C° 0 mm 3 m/S 736 mmHg 90%
23:00 -4°C° 0.2 mm 4 m/S 736 mmHg 91%

übermorgen, 27 Januar, Mittwoch

Zeit Temperatur Niederschläge Wind Luftdruck Luftfeuchtigkeit
00:00 -3°C° 0.2 mm 4 m/S 737 mmHg 92%
01:00 -4°C° 0.2 mm 5 m/S 737 mmHg 94%
02:00 -4°C° 0.3 mm 5 m/S 737 mmHg 93%
03:00 -4°C° 0.3 mm 5 m/S 737 mmHg 93%
04:00 -4°C° 0.3 mm 5 m/S 737 mmHg 93%
05:00 -4°C° 0.1 mm 5 m/S 737 mmHg 92%
06:00 -4°C° 0.1 mm 5 m/S 737 mmHg 92%
07:00 -4°C° 0.1 mm 5 m/S 737 mmHg 92%
08:00 -4°C° 0.1 mm 5 m/S 737 mmHg 91%
09:00 -4°C° 0.1 mm 5 m/S 738 mmHg 90%
10:00 -4°C° 0.1 mm 5 m/S 738 mmHg 88%
11:00 -3°C° 0 mm 4 m/S 738 mmHg 88%
12:00 -2°C° 0 mm 4 m/S 738 mmHg 87%
13:00 -2°C° 0 mm 4 m/S 737 mmHg 86%
14:00 -2°C° 0 mm 4 m/S 737 mmHg 87%
15:00 -2°C° 0 mm 3 m/S 737 mmHg 87%
16:00 -2°C° 0 mm 2 m/S 737 mmHg 88%
17:00 -2°C° 0 mm 2 m/S 737 mmHg 90%
18:00 -3°C° 0 mm 2 m/S 737 mmHg 92%
19:00 -3°C° 0 mm 2 m/S 737 mmHg 93%
20:00 -4°C° 0 mm 2 m/S 737 mmHg 94%
21:00 -4°C° 0 mm 2 m/S 737 mmHg 94%
22:00 -4°C° 0 mm 2 m/S 737 mmHg 94%
23:00 -5°C° 0 mm 3 m/S 736 mmHg 93%

28 Januar, Donnerstag

Zeit Temperatur Niederschläge Wind Luftdruck Luftfeuchtigkeit
00:00 -5°C° 0 mm 3 m/S 736 mmHg 91%
01:00 -5°C° 0 mm 3 m/S 736 mmHg 90%
02:00 -5°C° 0 mm 3 m/S 735 mmHg 89%
03:00 -4°C° 0 mm 4 m/S 734 mmHg 87%
04:00 -4°C° 0 mm 4 m/S 734 mmHg 86%
05:00 -4°C° 0 mm 4 m/S 734 mmHg 88%
06:00 -4°C° 0 mm 4 m/S 734 mmHg 90%
07:00 -5°C° 0 mm 5 m/S 733 mmHg 93%
08:00 -4°C° 0.1 mm 5 m/S 733 mmHg 93%
09:00 -4°C° 0.1 mm 5 m/S 733 mmHg 94%
10:00 -2°C° 0.1 mm 5 m/S 733 mmHg 94%
11:00 -2°C° 0 mm 5 m/S 733 mmHg 90%
12:00 -2°C° 0 mm 4 m/S 733 mmHg 86%
13:00 -2°C° 0 mm 4 m/S 733 mmHg 82%
14:00 -2°C° 0 mm 3 m/S 732 mmHg 84%
15:00 -2°C° 0 mm 2 m/S 732 mmHg 85%
16:00 -1°C° 0 mm 1 m/S 732 mmHg 87%
17:00 -1°C° 0 mm 1 m/S 731 mmHg 87%
18:00 -1°C° 0 mm 1 m/S 731 mmHg 87%
19:00 -1°C° 0 mm 1 m/S 731 mmHg 87%
20:00 -1°C° 0 mm 1 m/S 731 mmHg 87%
21:00 -1°C° 0 mm 1 m/S 730 mmHg 87%
22:00 0°C° 0 mm 1 m/S 730 mmHg 87%
23:00 0°C° 0.1 mm 1 m/S 730 mmHg 90%

29 Januar, Freitag

Zeit Temperatur Niederschläge Wind Luftdruck Luftfeuchtigkeit
00:00 0°C° 0.1 mm 1 m/S 729 mmHg 92%
01:00 0°C° 0.1 mm 1 m/S 729 mmHg 94%
02:00 0°C° 0.1 mm 1 m/S 729 mmHg 94%
03:00 0°C° 0.1 mm 1 m/S 729 mmHg 95%
04:00 0°C° 0.1 mm 1 m/S 729 mmHg 95%
05:00 0°C° 0 mm 1 m/S 729 mmHg 95%
06:00 -1°C° 0 mm 1 m/S 729 mmHg 94%
07:00 -1°C° 0 mm 1 m/S 729 mmHg 94%
08:00 0°C° 0 mm 1 m/S 728 mmHg 93%
09:00 0°C° 0 mm 1 m/S 728 mmHg 91%
10:00 -2°C° 0 mm 2 m/S 728 mmHg 90%
11:00 -1°C° 0.1 mm 2 m/S 727 mmHg 91%
12:00 -1°C° 0.1 mm 2 m/S 727 mmHg 92%
13:00 -1°C° 0.1 mm 2 m/S 726 mmHg 93%
14:00 -1°C° 0.6 mm 3 m/S 726 mmHg 94%
15:00 -1°C° 0.6 mm 3 m/S 725 mmHg 94%
16:00 -2°C° 0.6 mm 4 m/S 725 mmHg 95%
17:00 -3°C° 0.6 mm 4 m/S 725 mmHg 96%
18:00 -2°C° 0.6 mm 3 m/S 725 mmHg 97%
19:00 -2°C° 0.6 mm 3 m/S 725 mmHg 97%
20:00 -2°C° 0.5 mm 3 m/S 725 mmHg 97%
21:00 -2°C° 0.5 mm 2 m/S 725 mmHg 98%
22:00 -1°C° 0.5 mm 2 m/S 725 mmHg 98%
23:00 -1°C° 0.2 mm 2 m/S 725 mmHg 98%

30 Januar, Samstag

Zeit Temperatur Niederschläge Wind Luftdruck Luftfeuchtigkeit
00:00 -1°C° 0.2 mm 2 m/S 725 mmHg 98%
01:00 -1°C° 0.2 mm 3 m/S 725 mmHg 98%
02:00 -1°C° 0.1 mm 2 m/S 724 mmHg 98%
03:00 -1°C° 0.1 mm 2 m/S 724 mmHg 98%
04:00 -1°C° 0.1 mm 2 m/S 723 mmHg 98%
05:00 -1°C° 0.9 mm 3 m/S 724 mmHg 98%
06:00 -3°C° 0.9 mm 4 m/S 724 mmHg 97%
07:00 -4°C° 0.9 mm 5 m/S 724 mmHg 97%
08:00 -5°C° 0.2 mm 6 m/S 725 mmHg 95%
09:00 -5°C° 0.2 mm 6 m/S 726 mmHg 93%
10:00 -5°C° 0.2 mm 6 m/S 727 mmHg 92%
11:00 -5°C° 0.1 mm 6 m/S 728 mmHg 88%
12:00 -5°C° 0.1 mm 5 m/S 729 mmHg 85%
13:00 -4°C° 0.1 mm 5 m/S 730 mmHg 81%
14:00 -5°C° 0 mm 5 m/S 730 mmHg 83%
15:00 -5°C° 0 mm 5 m/S 730 mmHg 84%
16:00 -5°C° 0 mm 5 m/S 730 mmHg 85%
17:00 -5°C° 0 mm 5 m/S 731 mmHg 87%
18:00 -6°C° 0 mm 5 m/S 731 mmHg 88%
19:00 -6°C° 0 mm 6 m/S 731 mmHg 89%
20:00 -6°C° 0.2 mm 6 m/S 731 mmHg 91%
21:00 -6°C° 0.2 mm 6 m/S 732 mmHg 92%
22:00 -5°C° 0.2 mm 6 m/S 732 mmHg 93%
23:00 -5°C° 0.2 mm 6 m/S 732 mmHg 93%
Mehr zeigen

Wir brauchen deine Erlaubnis

Meteoprog und unser Service Anbieter werden persönliche Daten aufbewahren, so wie Cookies, Geräte Bezeichnung oder ähnliche Technologien von deinem Gerät und Prozess, so wie Persönliche Daten Inhalte und Werbungen, genauso wie social Media und den Verkehr zu analysieren.

  • Aufbewahrung und/oder Zugang zu deiner Geräte Informationen.

    Cookies, Geräte Bezeichnung oder andere Informationen, können aufbewahrt oder Zugang zu deinem Gerät erhalten, für den Grund, der oben angegeben wird.

  • Personalisierte Werbung und Inhalte, Messungen, Einblick in das Publikum und Produkt Entwicklung.

    Werbungen und Inhalte können personalisiert werden, basierend auf ein Profil. Mehr Daten können besser personalisierte Werbungen und Inhalte hinzufügen. Werbung und Inhalte können gezeigt und gemessen werden. Einblicke über das Publikum, welche die Werbung gesehen haben und den Inhalt, können abgeleitet werden. So wie Daten können genutzt werden, um es zu verbessern oder die Benutzer Erfahrung zu verbessern das System und die Software.

Wenn du “Ich stimme zu” klickst, erlaubst du uns, die Cookies zu benutzen die Geräte Bezeichnung, den Web oder ähnliche Technologien zu benutzen. Deine Settings, können in deinem Gerät bei deinem Browser geändert werden.

Für den bestimmten Zweck, berechtigten Interessen beruhen darauf, mehr als auf den Inhalt. Du kannst mehr darüber in unseren Privaten und Cookie Politik lesen.